TimeCDT,TemperatureF,Dew PointF,Humidity,Sea Level PressureIn,VisibilityMPH,Wind Direction,Wind SpeedMPH,Gust SpeedMPH,PrecipitationIn,Events,Conditions,WindDirDegrees,DateUTC
12:52 AM,51.1,39.9,66,29.85,10.0,WNW,10.4,-,N/A,,Clear,290,2013-10-21 05:52:00
1:52 AM,48.9,39.9,71,29.88,10.0,NW,11.5,19.6,N/A,,Scattered Clouds,310,2013-10-21 06:52:00
2:07 AM,48.2,39.2,71,29.88,10.0,WNW,13.8,-,N/A,,Mostly Cloudy,300,2013-10-21 07:07:00
2:35 AM,48.2,39.2,71,29.89,10.0,WNW,10.4,20.7,N/A,,Overcast,300,2013-10-21 07:35:00
2:52 AM,46.9,37.9,71,29.90,10.0,NW,9.2,-,N/A,,Overcast,310,2013-10-21 07:52:00
3:52 AM,44.1,35.1,71,29.92,10.0,NW,17.3,23.0,N/A,,Overcast,310,2013-10-21 08:52:00
4:52 AM,43.0,32.0,65,29.94,10.0,WNW,13.8,19.6,N/A,,Overcast,300,2013-10-21 09:52:00
5:52 AM,42.1,32.0,67,29.95,10.0,WNW,13.8,20.7,N/A,,Overcast,300,2013-10-21 10:52:00
6:52 AM,39.9,28.9,65,29.98,10.0,WNW,9.2,18.4,N/A,,Partly Cloudy,300,2013-10-21 11:52:00
7:52 AM,39.0,30.0,70,29.99,10.0,WNW,6.9,-,N/A,,Clear,290,2013-10-21 12:52:00
8:52 AM,41.0,30.0,65,30.00,10.0,WNW,12.7,-,N/A,,Clear,290,2013-10-21 13:52:00
9:52 AM,42.1,30.0,62,30.02,10.0,WNW,13.8,23.0,N/A,,Clear,290,2013-10-21 14:52:00
10:52 AM,43.0,27.0,53,30.02,10.0,West,10.4,19.6,N/A,,Partly Cloudy,280,2013-10-21 15:52:00
11:52 AM,43.0,24.1,47,30.02,10.0,WNW,21.9,28.8,N/A,,Overcast,300,2013-10-21 16:52:00
12:52 PM,45.0,24.1,44,30.01,10.0,NW,12.7,28.8,N/A,,Overcast,310,2013-10-21 17:52:00
1:52 PM,46.0,21.0,37,29.99,10.0,West,13.8,27.6,N/A,,Scattered Clouds,280,2013-10-21 18:52:00
2:52 PM,46.9,21.0,36,29.98,10.0,WNW,16.1,27.6,N/A,,Clear,290,2013-10-21 19:52:00
3:52 PM,46.0,19.9,35,29.99,10.0,WNW,17.3,-,N/A,,Partly Cloudy,300,2013-10-21 20:52:00
4:52 PM,46.0,21.0,37,30.00,10.0,WNW,17.3,24.2,N/A,,Clear,290,2013-10-21 21:52:00
5:52 PM,44.1,21.9,42,30.01,10.0,WNW,8.1,-,N/A,,Partly Cloudy,290,2013-10-21 22:52:00
6:52 PM,39.0,23.0,53,30.01,10.0,Calm,Calm,-,N/A,,Mostly Cloudy,0,2013-10-21 23:52:00
7:52 PM,36.0,28.0,73,30.01,10.0,South,3.5,-,N/A,,Overcast,190,2013-10-22 00:52:00
8:52 PM,37.0,28.0,70,30.01,10.0,Calm,Calm,-,N/A,,Scattered Clouds,0,2013-10-22 01:52:00
9:52 PM,34.0,26.1,73,30.02,10.0,Calm,Calm,-,N/A,,Clear,0,2013-10-22 02:52:00
10:52 PM,30.9,25.0,79,30.03,10.0,SSW,3.5,-,N/A,,Clear,210,2013-10-22 03:52:00
11:52 PM,33.1,25.0,72,30.02,10.0,Calm,Calm,-,N/A,,Clear,0,2013-10-22 04:52:00